Wind_Speed
45 45 46 43 36 36 33 27 26 31 35 31 30 31 30 32 32 32 33 32 32 33 32 31 30 31 33 33 32 32 36 38 38 38 38 37 36 36
44 44 43 41 40 35 29 38 35 35 39 33 35 32 31 32 32 33 32 32 32 32 32 33 31 31 35 35 31 31 33 37 37 38 39 39 38 37
46 43 41 42 47 34 35 36 34 35 38 35 33 33 35 33 34 34 36 36 34 31 32 31 32 31 32 33 32 32 33 36 37 38 38 39 38 38
45 44 43 43 44 43 50 39 33 42 41 38 35 34 33 30 31 36 34 34 33 33 36 33 33 34 35 36 36 36 35 36 37 38 38 39 39 39
42 41 41 41 41 40 42 41 44 45 42 42 40 37 38 35 36 34 34 36 35 34 34 37 37 33 37 37 36 34 34 34 36 36 37 38 40 40
41 39 39 41 41 41 42 39 39 41 39 41 41 38 38 38 38 37 38 37 37 37 36 37 38 37 36 35 37 38 38 39 37 37 38 38 38 39
42 41 41 42 41 41 40 40 41 41 41 39 40 41 41 38 39 39 43 43 41 42 44 44 44 40 35 41 37 37 37 36 42 43 43 44 44 44
45 45 46 46 45 40 42 43 31 39 42 44 47 48 46 42 40 39 42 38 45 38 42 39 40 43 43 46 38 38 42 41 42 44 50 46 42 43
41 38 41 41 42 45 40 39 47 45 47 45 46 44 44 42 35 35 39 38 38 40 43 45 44 45 45 42 43 43 41 42 50 48 47 47 44 43
33 36 34 33 32 32 38 40 43 44 42 42 40 39 35 41 44 41 39 37 42 41 38 43 38 38 39 37 42 44 42 47 44 47 47 45 44 46
38 37 35 34 33 32 36 39 42 44 42 38 37 36 40 43 42 43 48 47 48 50 46 43 46 41 41 41 43 40 38 42 47 47 47 42 42 44
33 33 31 33 35 35 40 38 37 37 36 34 34 37 38 39 41 44 47 48 44 43 40 43 44 44 43 45 41 39 41 44 42 45 44 44 42 45
26 27 27 28 29 33 38 35 35 34 34 33 34 35 36 38 38 38 40 44 45 46 44 44 45 44 45 50 49 40 41 41 40 39 39 42 42 45
26 27 29 30 28 29 31 33 35 35 35 33 35 32 32 32 34 35 30 34 37 35 35 39 43 39 39 39 39 37 36 37 36 33 34 34 38 39
24 27 28 31 32 34 34 35 36 34 32 33 33 31 32 29 28 26 27 27 26 27 29 28 28 29 29 31 32 31 28 29 26 27 31 34 38 42
25 25 29 30 28 32 35 33 33 33 33 32 30 32 31 27 23 22 21 21 26 30 32 31 30 29 29 29 28 26 25 25 29 33 36 38 39 41
25 26 27 29 25 27 28 30 32 34 32 30 29 31 28 26 24 23 22 23 25 24 21 22 27 27 24 22 24 24 28 33 35 38 38 38 39 40
23 25 29 28 28 26 26 27 30 29 30 29 28 29 29 31 28 26 26 22 20 20 17 16 14 16 21 23 26 28 31 35 37 38 38 37 34 35
23 25 28 31 29 27 26 25 24 27 28 29 29 30 31 32 34 33 31 27 24 22 20 20 19 19 21 24 28 32 34 35 36 36 35 33 29 30
24 26 27 29 28 26 25 23 21 21 22 21 21 23 24 27 31 33 31 29 29 27 25 25 26 27 27 30 32 33 33 33 33 33 32 31 29 27
25 25 25 28 26 26 26 25 24 23 22 22 22 23 25 23 24 24 26 27 29 31 30 29 28 29 30 31 31 30 31 31 30 29 30 31 32 30
27 27 28 28 27 27 27 29 29 28 28 28 30 29 28 24 23 26 25 24 24 25 26 26 27 27 27 28 28 29 29 28 27 27 29 33 36 38
24 26 24 23 24 24 22 23 25 27 27 26 25 23 22 21 22 22 23 23 23 22 23 23 24 25 26 26 26 26 27 28 27 27 29 36 39 43
Wind_Direction
235 238 237 252 244 242 239 242 247 260 254 249 256 258 260 253 253 257 260 263 263 263 265 267 268 272 275 273 271 272 275 277 277 278 279 278 278 278
231 235 238 243 245 242 234 260 249 249 252 254 258 259 260 255 253 254 260 262 265 269 270 272 271 273 273 277 279 277 275 276 277 278 278 279 279 278
232 235 237 240 238 242 235 236 246 251 261 260 251 259 258 260 255 254 257 261 261 265 267 269 267 268 275 278 281 277 276 274 275 276 277 277 278 278
230 232 236 240 240 237 243 249 246 257 257 259 262 261 260 256 255 255 256 259 267 266 272 272 268 271 270 273 276 275 276 275 275 275 276 275 276 276
230 233 235 239 239 240 242 245 247 249 253 258 254 253 258 260 264 263 260 265 266 266 267 271 273 276 263 269 269 279 282 277 277 280 280 278 277 276
226 230 234 237 240 245 244 245 246 249 253 259 259 259 258 260 259 262 266 268 268 265 266 266 273 271 272 270 276 274 273 274 273 277 279 279 275 274
228 231 235 239 241 244 246 248 249 250 253 256 260 258 260 261 263 264 262 266 264 262 262 267 271 265 274 271 268 272 273 276 275 270 270 273 274 274
228 230 234 238 239 241 243 242 246 248 247 246 249 254 261 267 269 269 268 273 272 270 269 264 265 267 272 273 267 271 273 276 275 274 272 270 271 273
229 233 238 241 240 240 241 240 245 245 254 257 258 261 267 269 271 272 263 271 274 272 265 264 263 268 270 262 271 266 270 269 277 280 271 268 266 269
229 237 240 236 239 243 250 248 250 254 256 258 263 266 268 269 272 275 276 269 271 266 266 272 272 271 273 270 263 271 267 262 272 278 268 266 263 266
228 227 233 238 247 250 245 246 249 252 255 258 262 266 269 269 270 271 273 271 271 270 264 273 267 272 273 266 260 266 265 267 265 271 266 265 267 268
224 232 234 240 241 243 246 253 254 254 257 258 259 265 267 266 264 263 265 266 268 273 271 271 267 267 269 264 267 264 268 270 268 270 266 260 266 268
231 232 237 241 242 243 250 247 246 253 257 256 259 265 269 269 267 266 262 262 265 270 274 272 270 269 270 269 266 270 268 265 266 267 256 264 261 272
237 241 242 246 247 244 245 247 254 261 256 259 263 269 272 268 267 268 270 264 268 270 267 265 266 267 265 267 267 267 264 260 266 263 260 263 272 276
243 241 243 247 249 247 248 250 255 257 262 264 265 268 271 267 268 268 272 273 271 264 255 255 264 268 264 268 266 266 264 261 255 269 275 276 277 279
246 244 245 248 247 248 248 249 252 257 258 264 267 266 268 258 255 264 266 263 256 259 258 259 262 266 271 269 260 263 257 270 280 279 280 280 279 280
248 247 246 250 246 249 249 250 253 256 259 261 261 261 258 247 252 256 259 261 257 260 266 265 258 261 264 259 262 260 262 271 277 281 280 279 283 286
246 246 246 249 247 256 256 255 256 252 254 258 262 260 257 250 259 266 259 260 259 260 264 261 265 265 260 257 259 266 272 275 278 278 281 285 286 287
247 246 248 249 254 258 256 257 256 250 253 258 260 261 257 257 257 267 268 249 252 250 260 257 258 258 263 264 267 271 275 277 281 284 285 287 287 285
244 246 246 253 258 253 251 252 254 253 252 253 255 259 264 267 264 263 257 248 245 251 255 263 270 272 271 271 274 278 281 282 284 285 286 287 287 286
244 248 252 256 257 253 248 244 246 248 248 251 257 261 272 276 270 252 250 251 247 248 253 259 264 267 270 274 277 280 282 284 285 287 289 291 292 293
245 244 248 255 255 254 249 247 246 249 252 255 260 269 272 267 260 254 250 247 246 248 253 258 263 267 271 275 280 283 284 286 288 290 292 292 294 295
245 250 249 250 251 251 252 244 247 250 253 257 260 262 262 259 255 251 248 247 249 252 257 262 266 271 276 279 281 284 285 287 288 293 297 298 300 302
Height
3059 3064 3068 3072 3072 3078 3079 3083 3088 3089 3094 3098 3099 3101 3104 3106 3107 3107 3107 3109 3111 3111 3112 3112 3113 3113 3113 3115 3117 3117 3115 3115 3116 3116 3116 3115 3115 3113
3050 3055 3060 3065 3070 3073 3073 3077 3080 3083 3086 3090 3093 3095 3096 3097 3099 3100 3101 3101 3102 3103 3104 3104 3105 3105 3105 3105 3108 3109 3108 3106 3106 3107 3106 3106 3106 3105
3042 3047 3052 3057 3061 3063 3066 3068 3072 3076 3078 3082 3085 3087 3089 3090 3091 3092 3093 3094 3095 3095 3095 3096 3097 3097 3097 3097 3098 3100 3100 3097 3097 3097 3097 3097 3096 3096
3033 3039 3044 3049 3052 3055 3058 3061 3066 3069 3070 3073 3076 3078 3080 3081 3082 3083 3084 3085 3086 3088 3088 3088 3088 3088 3088 3089 3089 3089 3090 3090 3088 3088 3087 3087 3086 3086
3026 3031 3036 3040 3043 3047 3050 3054 3058 3061 3061 3063 3067 3069 3071 3072 3073 3074 3076 3077 3078 3080 3080 3080 3079 3079 3080 3079 3080 3080 3081 3082 3080 3079 3079 3078 3077 3076
3018 3023 3027 3032 3036 3038 3041 3045 3049 3051 3053 3054 3056 3059 3060 3062 3063 3065 3067 3069 3070 3071 3070 3070 3070 3069 3070 3071 3071 3071 3071 3071 3071 3071 3070 3069 3067 3066
3010 3014 3019 3024 3028 3031 3033 3036 3039 3042 3044 3046 3047 3048 3050 3052 3054 3057 3056 3057 3058 3059 3060 3060 3061 3060 3061 3060 3060 3061 3061 3061 3061 3060 3059 3058 3058 3057
3001 3006 3011 3015 3018 3021 3024 3028 3030 3033 3034 3036 3038 3037 3039 3042 3044 3045 3047 3046 3045 3050 3049 3050 3050 3048 3050 3051 3051 3051 3051 3050 3050 3049 3048 3048 3047 3048
2993 2997 3002 3005 3008 3012 3016 3018 3021 3023 3024 3026 3026 3028 3028 3031 3034 3034 3035 3036 3034 3035 3036 3035 3038 3037 3038 3038 3039 3040 3040 3039 3039 3038 3036 3037 3036 3037
2985 2989 2992 2996 2999 3004 3007 3008 3011 3013 3014 3016 3017 3018 3019 3021 3020 3022 3023 3023 3022 3023 3024 3022 3026 3025 3026 3025 3027 3028 3027 3028 3027 3027 3026 3026 3026 3027
2977 2982 2984 2988 2993 2995 2997 2999 3001 3003 3006 3007 3008 3009 3010 3010 3010 3010 3009 3010 3009 3010 3013 3013 3013 3014 3015 3014 3015 3016 3016 3016 3016 3016 3016 3016 3016 3016
2968 2972 2976 2980 2984 2986 2987 2989 2991 2994 2996 2998 2999 2999 2999 2999 2999 2999 2999 2998 2999 2996 3002 3002 3002 3003 3002 3002 3004 3005 3005 3005 3005 3005 3006 3006 3006 3005
2960 2964 2967 2971 2973 2977 2978 2979 2983 2986 2987 2988 2989 2990 2990 2989 2989 2988 2988 2988 2988 2988 2990 2990 2990 2991 2990 2990 2991 2993 2993 2994 2993 2994 2995 2996 2996 2995
2952 2956 2959 2962 2964 2967 2968 2971 2975 2975 2977 2978 2979 2980 2979 2979 2979 2977 2976 2976 2977 2977 2978 2978 2978 2980 2980 2979 2980 2981 2982 2983 2983 2983 2984 2985 2986 2985
2945 2948 2951 2953 2956 2958 2961 2963 2965 2966 2968 2968 2969 2970 2969 2970 2969 2969 2968 2967 2969 2969 2969 2970 2970 2970 2970 2970 2971 2972 2973 2974 2975 2976 2977 2977 2975 2974
2937 2940 2943 2945 2947 2949 2951 2953 2955 2958 2959 2959 2960 2961 2961 2962 2962 2962 2961 2961 2960 2961 2961 2961 2962 2962 2962 2962 2963 2965 2966 2968 2968 2968 2968 2967 2965 2963
2931 2934 2936 2938 2939 2941 2943 2945 2947 2948 2950 2951 2952 2952 2953 2955 2955 2954 2954 2954 2953 2953 2953 2953 2953 2954 2955 2956 2957 2959 2960 2960 2960 2959 2958 2957 2954 2951
2924 2926 2928 2930 2932 2934 2936 2937 2939 2940 2942 2943 2944 2944 2945 2947 2947 2947 2947 2947 2947 2947 2947 2947 2947 2948 2948 2950 2951 2951 2951 2950 2949 2948 2946 2945 2944 2940
2917 2919 2922 2923 2924 2926 2928 2930 2931 2933 2934 2935 2936 2937 2938 2939 2939 2940 2939 2939 2941 2941 2941 2941 2941 2942 2942 2943 2944 2943 2941 2940 2939 2937 2935 2934 2934 2932
2910 2912 2914 2915 2917 2919 2921 2923 2925 2926 2927 2928 2929 2930 2930 2930 2930 2930 2931 2931 2933 2934 2934 2935 2935 2935 2935 2935 2934 2934 2933 2932 2930 2928 2926 2924 2923 2922
2902 2905 2907 2909 2911 2913 2915 2917 2918 2920 2921 2922 2923 2923 2923 2923 2922 2922 2924 2925 2925 2926 2927 2928 2928 2928 2927 2927 2927 2926 2924 2922 2922 2920 2917 2914 2911 2913
2896 2898 2900 2903 2904 2906 2908 2910 2912 2913 2913 2914 2915 2915 2915 2915 2915 2916 2917 2918 2919 2919 2920 2920 2920 2920 2920 2919 2918 2917 2916 2914 2914 2912 2909 2905 2901 2899
2890 2892 2893 2895 2897 2900 2901 2902 2904 2905 2906 2907 2907 2907 2908 2908 2909 2910 2911 2912 2913 2913 2914 2914 2914 2913 2913 2912 2912 2910 2908 2907 2906 2905 2902 2896 2892 2887